DW4827 Weather Reports


Display with metric or nautical units.
time (UTC)temp
F
wind
direction
speed
MPH
gust
MPH
rain 1hr
in
rain 24hr
in
rain mn
in
humidity
%
barometer
mb
20260504231008 82 308 6.0 13.0 0.00 0.00 0.00 32 1007.4
20260504230006 82 280 5.0 12.0 0.00 0.00 0.00 33 1007.7
20260504225007 82 300 5.0 10.0 0.00 0.00 0.00 36 1007.7
20260504224006 82 274 6.0 12.0 0.00 0.00 0.00 36 1007.7
20260504223007 82 267 4.0 12.0 0.00 0.00 0.00 38 1007.8
20260504222006 82 275 8.0 12.0 0.00 0.00 0.00 35 1008.1
20260504221007 82 296 7.0 12.0 0.00 0.00 0.00 37 1008.1
20260504220006 82 276 3.0 15.0 0.00 0.00 0.00 35 1008.1
20260504215007 82 300 4.0 12.0 0.00 0.00 0.00 36 1008.1
20260504214006 82 263 5.0 12.0 0.00 0.00 0.00 36 1008.1
20260504212007 81 307 6.0 13.0 0.00 0.00 0.00 36 1008.2
20260504211008 81 288 6.0 10.0 0.00 0.00 0.00 38 1008.3
20260504204006 80 327 6.0 12.0 0.00 0.00 0.00 35 1008.4
20260504203007 81 288 7.0 12.0 0.00 0.00 0.00 37 1008.4
20260504202007 81 316 6.0 12.0 0.00 0.00 0.00 40 1008.5
20260504201006 80 274 5.0 8.0 0.00 0.00 0.00 43 1008.5
20260504200008 79 330 6.0 12.0 0.00 0.00 0.00 41 1008.7
20260504195005 79 292 5.0 12.0 0.00 0.00 0.00 44 1008.7
20260504194006 79 269 6.0 12.0 0.00 0.00 0.00 42 1008.8
20260504192006 78 269 7.0 12.0 0.00 0.00 0.00 43 1008.9
20260504191007 78 267 5.0 12.0 0.00 0.00 0.00 42 1008.9
20260504190006 78 274 3.0 9.0 0.00 0.00 0.00 41 1008.9
20260504184006 78 274 5.0 10.0 0.00 0.00 0.00 43 1009.1
20260504183006 78 337 2.0 7.0 0.00 0.00 0.00 43 1009.1
20260504182006 77 322 4.0 6.0 0.00 0.00 0.00 42 1009.1
20260504181007 77 294 5.0 10.0 0.00 0.00 0.00 45 1009.0
20260504180006 77 327 3.0 10.0 0.00 0.00 0.00 44 1009.0
20260504175007 76 313 4.0 10.0 0.00 0.00 0.00 44 1009.0
20260504174006 76 354 2.0 10.0 0.00 0.00 0.00 49 1009.0
20260504173007 75 272 4.0 10.0 0.00 0.00 0.00 51 1009.1
20260504172006 75 284 3.0 5.0 0.00 0.00 0.00 54 1009.1
20260504171007 73 279 4.0 6.0 0.00 0.00 0.00 54 1009.1
20260504151006 55 337 0.0 0.0 0.00 0.00 0.00 91 1008.9
20260504082005 54 147 0.0 1.0 0.00 0.00 0.00 90 1007.9
20260504081006 54 148 1.0 3.0 0.00 0.00 0.00 90 1007.9
20260504050004 62 324 0.0 0.0 0.00 0.00 0.00 79 1007.9
20260504045005 63 324 0.0 0.0 0.00 0.00 0.00 77 1007.9
20260504043005 64 324 0.0 0.0 0.00 0.00 0.00 74 1007.4
20260504042004 65 324 0.0 0.0 0.00 0.00 0.00 73 1007.4
20260504041003 66 63 0.0 2.0 0.00 0.00 0.00 70 1007.4
20260504040005 67 63 0.0 2.0 0.00 0.00 0.00 68 1007.4
20260504035008 68 63 1.0 2.0 0.00 0.00 0.00 65 1007.4
20260504034007 69 285 2.0 3.0 0.00 0.00 0.00 62 1007.2
20260504033008 71 301 1.0 3.0 0.00 0.00 0.00 60 1007.2
20260504032008 72 293 1.0 7.0 0.00 0.00 0.00 57 1006.9
20260504030007 73 273 1.0 7.0 0.00 0.00 0.00 53 1006.9
20260504025008 74 284 3.0 6.0 0.00 0.00 0.00 51 1006.9
20260504024008 76 282 1.0 3.0 0.00 0.00 0.00 49 1006.9
20260504023008 78 315 1.0 6.0 0.00 0.00 0.00 46 1006.9
20260504022007 78 313 2.0 7.0 0.00 0.00 0.00 43 1006.9
20260504021008 79 286 3.0 10.0 0.00 0.00 0.00 43 1006.9
20260504020007 80 290 4.0 7.0 0.00 0.00 0.00 43 1007.0
20260504014007 80 273 3.0 7.0 0.00 0.00 0.00 41 1007.1
20260504013006 81 269 3.0 10.0 0.00 0.00 0.00 41 1007.1
20260504012007 81 291 6.0 12.0 0.00 0.00 0.00 42 1007.5
20260504005007 82 281 5.0 12.0 0.00 0.00 0.00 38 1007.5
20260504002006 83 292 5.0 12.0 0.00 0.00 0.00 40 1007.5
20260504001006 83 269 3.0 12.0 0.00 0.00 0.00 42 1007.9
20260504000007 83 276 6.0 14.0 0.00 0.00 0.00 40 1007.9
20260503235007 84 286 5.0 12.0 0.00 0.00 0.00 40 1007.9
20260503234007 84 307 5.0 10.0 0.00 0.00 0.00 40 1007.9
20260503232007 85 282 5.0 10.0 0.00 0.00 0.00 42 1008.2